CW8524 Weather Reports


time (UTC)temp
C
wind
direction
speed
KPH
gust
KPH
rain 1hr
cm
rain 24hr
cm
rain mn
cm
humidity
%
barometer
mb
20240222104541 2 344 1.6 9.7 0.00 0.00 0.00 71 1012.2
20240222103052 3 329 6.4 12.9 0.00 0.00 0.00 70 1012.0
20240222101535 3 342 6.4 14.5 0.00 0.00 0.00 66 1012.1
20240222100032 3 347 4.8 16.1 0.00 0.00 0.00 63 1012.0
20240222094530 3 355 6.4 16.1 0.00 0.00 0.00 59 1011.8
20240222093033 3 355 6.4 14.5 0.00 0.00 0.00 52 1011.6
20240222091530 3 331 6.4 16.1 0.00 0.00 0.00 46 1011.6
20240222090016 5 347 9.7 19.3 0.00 0.00 0.00 40 1011.1
20240222084513 5 319 8.0 19.3 0.00 0.00 0.00 37 1010.8
20240222083014 5 292 8.0 16.1 0.00 0.00 0.00 39 1010.0
20240222081507 5 267 9.7 20.9 0.00 0.00 0.00 38 1009.6
20240222080007 5 273 8.0 16.1 0.00 0.00 0.00 37 1009.6
20240222074506 6 280 11.3 19.3 0.00 0.00 0.00 37 1009.5
20240222073005 5 254 6.4 14.5 0.00 0.00 0.00 38 1009.5
20240222071506 5 276 9.7 20.9 0.00 0.00 0.00 39 1009.4
20240222070106 6 259 9.7 16.1 0.00 0.00 0.00 38 1009.5
20240222064603 6 267 11.3 16.1 0.00 0.00 0.00 38 1009.4
20240222063112 7 268 8.0 16.1 0.00 0.00 0.00 35 1009.5
20240222061552 7 280 4.8 12.9 0.00 0.00 0.00 35 1009.7
20240222060049 7 308 6.4 12.9 0.00 0.00 0.00 36 1009.7
20240222054602 8 250 8.0 16.1 0.00 0.00 0.00 35 1009.7
20240222053047 8 259 6.4 20.9 0.00 0.00 0.00 36 1009.9
20240222051547 8 270 6.4 20.9 0.00 0.00 0.00 34 1009.7
20240222050046 8 300 8.0 14.5 0.00 0.00 0.00 36 1009.7
20240222044610 8 267 8.0 16.1 0.00 0.00 0.00 35 1009.8
20240222043048 8 292 9.7 22.5 0.00 0.00 0.00 33 1009.5
20240222041544 9 320 11.3 20.9 0.00 0.00 0.00 32 1009.4
20240222040045 10 306 14.5 24.1 0.00 0.00 0.00 30 1009.2
20240222034543 8 281 11.3 20.9 0.00 0.00 0.00 33 1009.2
20240222033048 8 267 6.4 16.1 0.00 0.00 0.00 35 1009.1
20240222031543 8 315 6.4 16.1 0.00 0.00 0.00 34 1009.2
20240222030042 8 250 11.3 17.7 0.00 0.00 0.00 33 1008.9
20240222024541 8 262 12.9 22.5 0.00 0.00 0.00 31 1008.9
20240222023041 9 273 9.7 16.1 0.00 0.00 0.00 29 1008.7
20240222021641 10 238 4.8 17.7 0.00 0.00 0.00 26 1008.8
20240222020041 11 245 9.7 19.3 0.00 0.00 0.00 24 1008.6
20240222014538 11 267 9.7 20.9 0.00 0.00 0.00 21 1008.5
20240222013037 12 277 9.7 19.3 0.00 0.00 0.00 19 1008.3
20240222011555 14 280 12.9 20.9 0.00 0.00 0.00 17 1008.2
20240222010038 15 252 11.3 27.4 0.00 0.00 0.00 14 1007.7
20240222004536 17 256 22.5 38.6 0.00 0.00 0.00 12 1007.3
20240222003035 17 280 17.7 35.4 0.00 0.00 0.00 12 1007.0
20240222001534 18 212 24.1 40.2 0.00 0.00 0.00 11 1006.9
20240222000034 19 238 22.5 33.8 0.00 0.00 0.00 11 1006.7
20240221234532 20 230 17.7 29.0 0.00 0.00 0.00 13 1006.5
20240221233033 20 221 19.3 35.4 0.00 0.00 0.00 12 1006.5
20240221231534 20 219 20.9 35.4 0.00 0.00 0.00 12 1006.5
20240221230034 20 196 20.9 40.2 0.00 0.00 0.00 13 1006.4
20240221224530 20 202 20.9 48.3 0.00 0.00 0.00 12 1006.3
20240221223031 20 163 25.7 43.5 0.00 0.00 0.00 13 1006.4
20240221221530 20 175 27.4 38.6 0.00 0.00 0.00 12 1006.3
20240221220029 20 185 25.7 40.2 0.00 0.00 0.00 12 1006.2
20240221214527 20 182 22.5 35.4 0.00 0.00 0.00 11 1006.7
20240221213036 19 196 17.7 30.6 0.00 0.00 0.00 12 1006.9
20240221211522 19 211 14.5 30.6 0.00 0.00 0.00 14 1007.6
20240221210019 19 209 17.7 30.6 0.00 0.00 0.00 13 1007.9
20240221204517 19 186 17.7 30.6 0.00 0.00 0.00 13 1008.1
20240221203013 18 192 11.3 30.6 0.00 0.00 0.00 14 1008.5
20240221201512 18 175 14.5 22.5 0.00 0.00 0.00 14 1008.9
20240221200008 18 221 19.3 30.6 0.00 0.00 0.00 14 1009.1
20240221194520 18 230 17.7 32.2 0.00 0.00 0.00 14 1009.3
20240221193007 19 224 17.7 30.6 0.00 0.00 0.00 13 1009.7
20240221191505 19 228 17.7 37.0 0.00 0.00 0.00 13 1009.7
20240221190002 19 216 17.7 32.2 0.00 0.00 0.00 12 1010.2
20240221184606 20 197 25.7 40.2 0.00 0.00 0.00 12 1010.6
20240221183100 20 202 24.1 46.7 0.00 0.00 0.00 11 1011.1
20240221181552 20 229 20.9 41.8 0.00 0.00 0.00 12 1011.6
20240221180121 19 179 20.9 37.0 0.00 0.00 0.00 12 1011.9
20240221174545 19 232 20.9 35.4 0.00 0.00 0.00 12 1012.0
20240221173040 18 238 19.3 32.2 0.00 0.00 0.00 13 1012.2
20240221171537 17 192 14.5 33.8 0.00 0.00 0.00 14 1012.3
20240221170033 16 205 16.1 27.4 0.00 0.00 0.00 18 1012.7
20240221164529 15 225 17.7 27.4 0.00 0.00 0.00 19 1012.9
20240221163025 15 223 14.5 25.7 0.00 0.00 0.00 22 1013.3
20240221161521 14 224 12.9 22.5 0.00 0.00 0.00 21 1013.3
20240221160017 13 265 16.1 25.7 0.00 0.00 0.00 21 1013.4
20240221154513 12 265 14.5 24.1 0.00 0.00 0.00 24 1013.6
20240221153021 11 245 12.9 22.5 0.00 0.00 0.00 26 1013.8
20240221151509 11 244 8.0 14.5 0.00 0.00 0.00 26 1013.7
20240221150006 11 230 8.0 24.1 0.00 0.00 0.00 25 1013.6
20240221144501 9 269 11.3 19.3 0.00 0.00 0.00 27 1013.7
20240221143103 8 234 12.9 22.5 0.00 0.00 0.00 30 1013.6
20240221141555 7 254 9.7 20.9 0.00 0.00 0.00 32 1013.6
20240221140051 6 284 12.9 24.1 0.00 0.00 0.00 33 1013.7
20240221134547 6 267 12.9 20.9 0.00 0.00 0.00 35 1013.7
20240221133046 6 256 9.7 22.5 0.00 0.00 0.00 36 1014.2
20240221131555 6 245 12.9 25.7 0.00 0.00 0.00 34 1014.1
20240221130046 5 220 16.1 29.0 0.00 0.00 0.00 38 1014.1
20240221124543 5 222 16.1 29.0 0.00 0.00 0.00 38 1014.0
20240221123042 5 236 16.1 29.0 0.00 0.00 0.00 38 1014.1
20240221121540 6 244 17.7 29.0 0.00 0.00 0.00 38 1014.2
20240221120039 5 274 16.1 24.1 0.00 0.00 0.00 40 1014.2
20240221114537 6 229 9.7 19.3 0.00 0.00 0.00 38 1014.0
20240221113037 6 225 11.3 20.9 0.00 0.00 0.00 36 1013.9
20240221111542 7 255 16.1 25.7 0.00 0.00 0.00 35 1013.9
20240221110036 7 267 19.3 30.6 0.00 0.00 0.00 35 1014.2